Torna al catalogo

STARLINK-35492

AttivoComunicazioniVLEO
NORAD 65926·PAYLOAD·🇺🇸 United States

Lanciato Oct 8, 2025 da Vandenberg Space Force Base

Loading…

Prossimi Passaggi (prossime 24 ore)

TLE

AggiornatoSource: CelesTrak SupGP

Epoca: Sep 15, 2026, 03:06 UTC

1 65926C 25225S   26258.12965278  .00069120  00000+0  20413-2 0  2584
2 65926  53.1595   2.5926 0001093  83.8895  26.8599 15.34369952    13

Traccia STARLINK-35492 in tempo reale con AllMySat

Download on the App Store